Lexington Weather

Lexington, Massachusetts, USA

47°F
10/22/2019 2:39am 
  • Lexington Conditions: Mostly cloudy
  • Temperature: 46.9°F / 8.3°CWarmer 1.4°F than last hour.
  • Dew Point: 45.5°FIncreased 2.0°Fsince last hour.
  • Relative Humidity: 95%Increased 2.0% since last hour.
  • Wind: Calm, 10-min avg: Calm, gust: None
  • Barometer: 30.12 in Steady
  • Visibility: 9 miles
  • Rain Today: 0.00 in
  •   

Regional Weather Roundup
for Boston, MA

        
000
ASUS41 KBOX 202000
RWRBOX

REGIONAL WEATHER ROUNDUP
NATIONAL WEATHER SERVICE BOSTON/NORTON MA
400 PM EDT SUN OCT 20 2019

NOTE:  "FAIR" INDICATES FEW OR NO CLOUDS BELOW 12,000 FEET WITH NO 
SIGNIFICANT WEATHER AND/OR OBSTRUCTIONS TO VISIBILITY.

MAZALL-202100-
EASTERN MASSACHUSETTS
  
CITY           SKY/WX    TMP DP  RH WIND       PRES   REMARKS
BOSTON         CLOUDY    58  47  66 E8        30.07F                  
BEVERLY        FAIR      58  45  62 SE8       30.06F                  
LAWRENCE       FAIR      57  47  69 E7        30.08F                  
BEDFORD        PTSUNNY   61  38  42 S3        30.06S                  
BLUE HILL      NOT AVBL                                               
NORWOOD        FAIR      64  39  39 CALM      30.06S                  
MARSHFIELD     NOT AVBL                                               
PLYMOUTH       FAIR      59  48  67 S5        30.06F                  
TAUNTON        FAIR      61  46  57 S3        30.06S                  
NEW BEDFORD    FAIR      59  47  64 SE3       30.05F                  
$$

MAZALL-202100-
CAPE COD AND THE ISLANDS
  
CITY           SKY/WX    TMP DP  RH WIND       PRES   REMARKS
FALMOUTH       SUNNY     57  41  54 S5        30.07S                  
HYANNIS        FAIR      58  46  64 E5        30.06S                  
CHATHAM        NOT AVBL                                               
PROVINCETOWN   FAIR      58  47  66 S6          N/A                   
NANTUCKET      PTSUNNY   57  50  77 E5        30.07S                  
MARTHAS VNYRD  FAIR      58  47  66 SE3       30.06F                  
$$
 
MAZALL-202100-
CENTRAL AND WESTERN MASSACHUSETTS
  
CITY           SKY/WX    TMP DP  RH WIND       PRES   REMARKS
WORCESTER      FAIR      56  40  55 SW5       30.06S                  
FITCHBURG      FAIR      58  39  49 E5        30.06S                  
ORANGE         PTSUNNY   58  42  55 SW5       30.07S                  
SPRINGFIELD    LGT RAIN  56  45  64 CALM      30.05S                  
WESTFIELD      LGT RAIN  55  46  71 CALM      30.06R                  
NORTH ADAMS    LGT RAIN  55  44  66 CALM      30.04S                  
PITTSFIELD     LGT RAIN  53  44  71 S5        30.04R                  
$$
 
RIZALL-202100-
RHODE ISLAND
  
CITY           SKY/WX    TMP DP  RH WIND       PRES   REMARKS
PROVIDENCE     CLOUDY    59  45  59 SE3       30.07S                  
NEWPORT        FAIR      59  47  64 SE5       30.06S                  
BLOCK ISLAND   FAIR      57  49  74 E5        30.06S                  
SMITHFIELD     FAIR     N/A N/A N/A CALM      30.07R                  
WESTERLY       FAIR      61  50  67 CALM      30.06S                  
$$
 
CTZALL-202100-
CONNECTICUT
  
CITY           SKY/WX    TMP DP  RH WIND       PRES   REMARKS
BRADLEY INTL   LGT RAIN  57  46  66 N3        30.05S                  
HARTFORD       LGT RAIN  57  47  69 NE3       30.04F                  
BRIDGEPORT     LGT RAIN  59  52  77 E7        30.03S                  
DANBURY        LGT RAIN  53  50  89 CALM      30.04S FOG              
GROTON         PTSUNNY   59  49  69 E5        30.04F                  
NEW HAVEN      CLOUDY    61  51  70 E3        30.04S                  
CHESTER        FAIR      57  48  72 E3        30.04F                  
MERIDEN        LGT RAIN  54  49  83 W6        30.04F                  
WILLIMANTIC    PTSUNNY   59  45  59 S5        30.06S                  
OXFORD         LGT RAIN  54  51  90 CALM      30.04F                  
$$

MEZ002-015-021-024-NHZ003-005-008-011-012-014-VTZ005-008-202100-
NORTHERN NEW ENGLAND
  
CITY           SKY/WX    TMP DP  RH WIND       PRES   REMARKS
PORTLAND ME    FAIR      54  44  69 E7        30.09S                  
BANGOR ME      PTSUNNY   56  39  53 S9        30.08R                  
CONCORD NH     FAIR      57  40  52 CALM      30.06S                  
MANCHESTER NH  CLOUDY    59  40  49 W3        30.05F                  
NASHUA NH      PTSUNNY   58  43  57 VRB3      30.07S                  
PORTSMOUTH NH  PTSUNNY   55  44  67 E8        30.06S                  
JAFFREY NH     FAIR      56  37  49 S5        30.06S                  
KEENE NH       FAIR      57  40  52 SW3       30.05F                  
BURLINGTON VT  CLOUDY    56  39  53 S10       29.99F                  
MT. WASHINGTON PTSUNNY   34  18  51 SW24        N/A  WCI  21          
$$

NYZ052-076-202100-
EASTERN NEW YORK
  
CITY           SKY/WX    TMP DP  RH WIND       PRES   REMARKS
ALBANY         LGT RAIN  52  45  77 S7        30.05S                  
NEW YORK CITY  RAIN      59  54  83 NE10      30.00F                  
$$
 
ANZALL-202100-
MARINE OBSERVATIONS
  
STATION/POSITION TIME  TEMP    WIND        PRES    VSBY  WAVE
                       AIR SEA DIR/SP/G                  HT/PER
                 (UTC) (F)     (DEG/KT/KT) (MB)    (MI)  (FT/S)
BOSTON BUOY      1850   56 57  100/  4/  6 1017.6          1/13
BUZZARDS BAY     1900   57     140/  2/  3 1018.5F
NANTUCKET SOUND  1850      57                N/A           0
MASS BAY-STELLWA 1904   55 56  150/  4/  6 1018.0R  1 7/8  1/ 3
ISLE OF SHOALS   1900   54      50/  6/  7 1018.2R
S OF BLOCK IS    1930      60                N/A           1/13
$$

......................KEY.........................
  SKY/WX - SKY CONDITION/PRESENT WEATHER
  TMP    - TEMPERATURE IN FAHRENHEIT
  DWPT   - DEWPOINT IN FAHRENHEIT
  RH     - RELATIVE HUMIDITY IN PERCENT
  WIND   - DIRECTION AND SPEED IN MPH
  PRES   - MEAN SEA LEVEL PRESSURE IN INCHES OF HG
  WCI    - WIND CHILL INDEX
  VSB    - VISIBILITY IN MILES
  HX     - HEAT INDEX
  TC     - TEMPERATURE IN CELSIUS
  VRB    - VARIABLE WIND DIRECTION
  N/A    - NOT AVAILABLE
  
      

Other recent Regional Weather Roundups

Tue Oct 22, 2:10am

Tue Oct 22, 2:00am

Tue Oct 22, 1:10am

Tue Oct 22, 1:00am

Tue Oct 22, 12:10am

Tue Oct 22, 12:00am

Mon Oct 21, 11:10pm

Mon Oct 21, 11:00pm

Mon Oct 21, 10:10pm

Mon Oct 21, 10:01pm

Mon Oct 21, 9:10pm

Mon Oct 21, 9:00pm

Mon Oct 21, 8:10pm

Mon Oct 21, 8:00pm

Mon Oct 21, 7:10pm

Mon Oct 21, 7:01pm

Mon Oct 21, 6:10pm

Mon Oct 21, 6:01pm

Mon Oct 21, 5:10pm

Mon Oct 21, 5:01pm

Mon Oct 21, 4:10pm

Mon Oct 21, 4:00pm

Mon Oct 21, 3:10pm

Mon Oct 21, 3:01pm

Mon Oct 21, 2:10pm

Mon Oct 21, 2:00pm

Mon Oct 21, 1:10pm

Mon Oct 21, 1:01pm

Mon Oct 21, 12:10pm

Mon Oct 21, 12:00pm

Mon Oct 21, 11:10am

Mon Oct 21, 11:00am

Mon Oct 21, 10:10am

Mon Oct 21, 10:00am

Mon Oct 21, 9:10am

Mon Oct 21, 9:00am

Mon Oct 21, 7:10am

Mon Oct 21, 7:00am

Mon Oct 21, 6:10am

Mon Oct 21, 6:00am

Mon Oct 21, 5:10am

Mon Oct 21, 5:00am

Mon Oct 21, 4:10am

Mon Oct 21, 4:00am

Mon Oct 21, 3:10am

Mon Oct 21, 3:00am

Mon Oct 21, 2:10am

Mon Oct 21, 2:01am

Mon Oct 21, 1:10am

Mon Oct 21, 1:00am

Mon Oct 21, 12:10am

Mon Oct 21, 12:00am

Sun Oct 20, 11:10pm

Sun Oct 20, 11:00pm

Sun Oct 20, 10:10pm

Sun Oct 20, 10:00pm

Sun Oct 20, 9:10pm

Sun Oct 20, 9:01pm

Sun Oct 20, 8:10pm

Sun Oct 20, 8:00pm

Sun Oct 20, 7:10pm

Sun Oct 20, 7:01pm

Sun Oct 20, 6:10pm

Sun Oct 20, 6:00pm

Sun Oct 20, 5:10pm

Sun Oct 20, 5:00pm

Sun Oct 20, 4:10pm

Sun Oct 20, 3:10pm

Sun Oct 20, 3:00pm

Sun Oct 20, 2:10pm

Sun Oct 20, 2:01pm

Sun Oct 20, 1:10pm

Sun Oct 20, 1:01pm

Sun Oct 20, 12:10pm

Sun Oct 20, 12:00pm

Sun Oct 20, 11:10am

Sun Oct 20, 11:00am

Sun Oct 20, 10:10am

Sun Oct 20, 10:00am

Sun Oct 20, 9:10am

Sun Oct 20, 9:00am

Sun Oct 20, 8:10am

Sun Oct 20, 8:00am

Sun Oct 20, 7:10am

Sun Oct 20, 7:00am

Sun Oct 20, 6:10am

Sun Oct 20, 6:00am

Sun Oct 20, 5:10am

Sun Oct 20, 5:00am

Sun Oct 20, 4:10am

Sun Oct 20, 4:00am

Sun Oct 20, 3:10am

Sun Oct 20, 3:00am

Sun Oct 20, 2:10am

Sun Oct 20, 2:00am

Sun Oct 20, 1:10am

Sun Oct 20, 1:00am

Sun Oct 20, 12:10am

Sun Oct 20, 12:00am

Sat Oct 19, 11:10pm

Sat Oct 19, 11:00pm

Sat Oct 19, 10:10pm

Sat Oct 19, 10:00pm

Sat Oct 19, 9:10pm

Sat Oct 19, 9:00pm

Sat Oct 19, 8:10pm

Sat Oct 19, 8:00pm

Sat Oct 19, 7:10pm

Sat Oct 19, 7:00pm

Sat Oct 19, 6:10pm

Sat Oct 19, 6:00pm

Sat Oct 19, 5:10pm

Sat Oct 19, 5:00pm

Sat Oct 19, 4:10pm

Sat Oct 19, 4:00pm

Sat Oct 19, 3:10pm

Sat Oct 19, 3:01pm

Sat Oct 19, 2:10pm

Sat Oct 19, 2:00pm

Sat Oct 19, 1:10pm

Sat Oct 19, 1:01pm

Sat Oct 19, 12:10pm

Sat Oct 19, 12:00pm

Sat Oct 19, 11:10am

Sat Oct 19, 11:01am

Sat Oct 19, 10:10am

Sat Oct 19, 10:00am

Sat Oct 19, 9:10am

Sat Oct 19, 9:00am

Sat Oct 19, 8:10am

Sat Oct 19, 8:00am

Sat Oct 19, 7:10am

Sat Oct 19, 7:00am

Sat Oct 19, 6:10am

Sat Oct 19, 6:00am

Sat Oct 19, 5:10am

Sat Oct 19, 5:00am

Sat Oct 19, 4:10am

Sat Oct 19, 4:00am

Sat Oct 19, 3:10am

Sat Oct 19, 3:00am

Meta data:

ID: 2d4210cb-2443-4dc4-af1e-d4a3230cf482
Link: https://api.weather.gov/products/2d4210cb-2443-4dc4-af1e-d4a3230cf482